This demonstration page uses our WeatherBlox Daily Observations layout. Learn more.

Left ArrowRight Arrow

39.92423, -83.80882

Hourly Observations for June 9, 2021

Temp ( °F °C ) Dew Point ( °F °C ) Humidity (%) Winds ( mph kmh ) Pressure ( in mb ) Visibility ( mi km ) Precip ( " mm )
12:56 am 00:56 Cloudy with Light Rain 70 21 N/A N/A N N/A 30.11 1020 10 16 0.01 0.25
1:56 am 01:56 Cloudy with Light Rain 70 21 N/A N/A ESE 3 6 30.09 1019 10 16 0.02 0.51
2:56 am 02:56 Cloudy 70 21 N/A N/A N N/A 30.08 1019 10 16 0.01 0.25
3:56 am 03:56 Cloudy 70 21 N/A N/A S 3 6 30.07 1018 8 13 N/A
4:56 am 04:56 Cloudy with Light Rain 70 21 N/A N/A S 6 9 30.06 1018 9 14 0.01 0.25
5:56 am 05:56 Hazy 68 20 N/A N/A ESE 3 6 30.06 1018 4 6 0.00 0.00
6:09 am 06:09 Partly Cloudy with Mist and Fog 68 20 N/A N/A SSE 3 6 30.05 1018 3 4 N/A
6:16 am 06:16 Hazy 70 21 N/A N/A SSE 3 6 30.05 1018 4 6 N/A
6:56 am 06:56 Mostly Cloudy with Light Rain 70 21 N/A N/A SSE 3 6 30.07 1018 6 10 0.00 0.00
7:56 am 07:56 Partly Cloudy 70 21 N/A N/A SSE 6 9 30.07 1018 10 16 0.00 0.00
8:56 am 08:56 Cloudy 72 22 N/A N/A SE 6 9 30.08 1019 10 16 0.00 0.00
9:56 am 09:56 Cloudy 72 22 N/A N/A SE 8 13 30.09 1019 10 16 N/A
10:42 am 10:42 Cloudy with Light Rain 72 22 N/A N/A SE 7 11 30.08 1019 10 16 0.00 0.00
10:56 am 10:56 Cloudy with Light Rain 72 22 N/A N/A SSE 9 15 30.10 1019 10 16 0.01 0.25
11:16 am 11:16 Cloudy with Rain 72 22 N/A N/A SE 9 15 30.08 1019 9 14 0.02 0.51
11:28 am 11:28 Cloudy with Rain 72 22 N/A N/A ESE 13 20 30.08 1019 6 10 0.05 1.27
11:53 am 11:53 Cloudy with Light Rain 72 22 N/A N/A SSE 9 15 30.09 1019 9 14 0.12 3.05
11:56 am 11:56 Cloudy with Light Rain 72 22 N/A N/A SSE 8 13 30.11 1020 8 13 0.12 3.05
12:03 pm 12:03 Cloudy with Light Rain 72 22 N/A N/A SE 7 11 30.08 1019 8 13 0.01 0.25
12:25 pm 12:25 Cloudy with Light Rain 72 22 N/A N/A ESE 7 11 30.08 1019 10 16 0.04 1.02
12:40 pm 12:40 Cloudy with Light Rain 72 22 N/A N/A ESE 10 17 30.07 1018 10 16 0.06 1.52
12:56 pm 12:56 Cloudy with Light Rain 72 22 N/A N/A ESE 9 15 30.10 1019 10 16 0.06 1.52
1:06 pm 13:06 Cloudy with Light Rain 72 22 N/A N/A ESE 9 15 30.07 1018 10 16 0.01 0.25
1:44 pm 13:44 Cloudy 73 23 N/A N/A SE 10 17 30.06 1018 10 16 0.01 0.25
1:48 pm 13:48 Cloudy 73 23 N/A N/A SE 12 19 30.06 1018 10 16 0.01 0.25
1:56 pm 13:56 Cloudy 74 23.3 74 23.3 100 100 SE 15 24 30.08 1019 10 16 0.01 0.25
2:14 pm 14:14 Cloudy with Light Rain 73 23 73 23 100 100 SE 13 20 30.05 1018 10 16 0.00 0.00
2:47 pm 14:47 Cloudy with Light Rain 73 23 N/A N/A SE 13 20 30.04 1017 10 16 0.00 0.00
2:56 pm 14:56 Cloudy with Light Rain 73 23 N/A N/A SE 13 20 30.06 1018 10 16 0.00 0.00
3:07 pm 15:07 Cloudy with Light Rain 73 23 N/A N/A SE 13 20 30.04 1017 10 16 0.00 0.00
3:15 pm 15:15 Cloudy with Light Rain 73 23 N/A N/A SE 10 17 30.04 1017 10 16 0.00 0.00
3:28 pm 15:28 Cloudy with Light Rain 73 23 N/A N/A SE 10 17 30.04 1017 10 16 0.00 0.00
3:37 pm 15:37 Cloudy with Light Rain 73 23 N/A N/A SE 13 20 30.04 1017 10 16 0.01 0.25
3:56 pm 15:56 Cloudy with Light Rain 72 22 N/A N/A SE 12 19 30.06 1018 10 16 0.01 0.25
4:06 pm 16:06 Cloudy with Light Rain 72 22 N/A N/A SE 14 22 30.03 1017 10 16 0.00 0.00
4:15 pm 16:15 Cloudy with Light Rain 72 22 N/A N/A SE 10 17 30.02 1017 10 16 0.00 0.00
4:45 pm 16:45 Cloudy with Light Rain 73 23 N/A N/A SE 10 17 30.01 1016 10 16 0.00 0.00
4:56 pm 16:56 Cloudy 73 23 N/A N/A SSE 10 17 30.03 1017 10 16 0.00 0.00
5:33 pm 17:33 Mostly Cloudy 75 24 73 23 94 94 SE 10 17 29.99 1015 10 16 N/A
5:44 pm 17:44 Cloudy 75 24 75 24 100 100 SE 10 17 29.99 1015 10 16 N/A
5:56 pm 17:56 Cloudy 75 23.9 74 23.3 96 96 SE 12 19 30.01 1016 10 16 N/A
6:01 pm 18:01 Cloudy 75 24 73 23 94 94 SE 12 19 29.98 1015 10 16 N/A
6:34 pm 18:34 Mostly Cloudy 73 23 73 23 100 100 S 3 6 29.98 1015 10 16 N/A
6:56 pm 18:56 Cloudy 74 23.3 74 23.3 100 100 SE 9 15 30.00 1016 10 16 N/A
7:42 pm 19:42 Mostly Cloudy 73 23 73 23 100 100 undefined N/A 29.98 1015 10 16 N/A
7:56 pm 19:56 Mostly Cloudy 74 23.3 74 23.3 100 100 SE 6 9 30.01 1016 10 16 N/A
8:56 pm 20:56 Mostly Sunny 71 21.7 71 21.7 100 100 SE 6 9 30.02 1017 10 16 N/A
9:56 pm 21:56 Clear 70 21 N/A N/A SE 3 6 30.02 1017 10 16 N/A
10:44 pm 22:44 Mostly Cloudy 68 20 N/A N/A E 3 6 30.02 1017 10 16 N/A
10:56 pm 22:56 Mostly Cloudy 68 20 N/A N/A E 6 9 30.03 1017 10 16 N/A
11:04 pm 23:04 Partly Cloudy 66 19 N/A N/A ESE 7 11 30.02 1016 10 16 N/A
11:56 pm 23:56 Clear 66 19 N/A N/A E 5 7 30.03 1017 10 16 N/A

Powered by AerisWeather